sat.trackr.live / text

‹ back to catalog

STARLINK-35664

NORAD 66223 · 2025-244T

PAYLOAD ACTIVE UNKNOWN

§ Identity

Operator
Country
US
Launch date
2025-10-28
Launch site
AFWTR
Launch vehicle
Mass (kg)
RCS (m²)

Purposes: comms

External: N2YO · Heavens-Above · Gunter

§ Orbital elements

Epoch: 2026-05-25T05:10:51.922272Z

Period
94.10 min
Inclination
53.1568°
Eccentricity
0.0001359
Mean motion
15.30206134 rev/d
Perigee alt
474.3 km
Apogee alt
476.1 km
Semi-major
6,853.3 km
B*
3.9775e-4
RAAN
234.6222°
Arg perigee
81.3502°
Mean anomaly
278.7652°
Rev number
3,337

§ Raw data

STARLINK-356641 66223U 25244T   26145.21587873  .00011441  00000+0  39775-3 0  99992 66223  53.1568 234.6222 0001359  81.3502 278.7652 15.30206134 33375

JSON: /api/v1/satellites/66223 · /tle

For live sub-satellite position, see the globe view (requires WebGL).

§ Visibility from observer

Set your observer location to see the next 7 days of passes ≥ 10°. The values pass through the URL so the page stays shareable.

No JS? Fill the form by hand. The geolocation button needs JavaScript.